Flag for India Weather past 2 weeks in Vellore, Tamil Nadu, India

Now
90 °F

Partly sunny.


Feels Like: 100 °F
Forecast: 76 / 91 °F
Wind: 14 mph from Southeast

Location: Madras / Minambakkam

Current Time: Apr 25, 2015 at 5:23:25 PM

Latest Report: Apr 25, 2015 at 4:40 PM


Visibility: 4 mi

Pressure: 29.71 "Hg

Humidity: 63%

Dew point: 75 °F

Location of VelloreLocation

Historic Weather in Vellore — Graph

°F

Vellore temperature yesterday

Maximum temperature yesterday: 95 °F (at 11:40 AM)
Minimum temperature yesterday: 75 °F (at 11:10 PM)
Average temperature yesterday: 87 °F

Past Weeks' High & Low Weather Summary

 TemperatureHumidityPressure
High99 °F (Apr 23, 12:40 PM)94% (Apr 11, 6:10 AM)29.98 "Hg (Apr 11, 6:10 AM)
Low73 °F (Apr 14, 2:40 AM)39% (Apr 14, 12:10 PM)29.68 "Hg (Apr 18, 2:40 PM)
Average86 °F73%29.82 "Hg
* Reported Apr 10 3:40 PM — Apr 25 3:40 PM, Vellore, Weather by CustomWeather, © 2015

Note: Actual official high and low records may vary slightly from our data, if they occured in-between our weather recording intervals... More about our weather records

Advertising

Vellore weather history for previous 24 hours

 ConditionsComfort  
Time TempWeatherWind HumidityBarometerVisibility
3:40 PM
Sat, Apr 25
91 °FScattered clouds.12 mph59%29.68 "Hg5 mi
3:10 PM93 °FScattered clouds.12 mph59%29.71 "Hg5 mi
2:40 PM95 °FPartly sunny.8 mph53%29.71 "Hg5 mi
2:10 PM95 °FScattered clouds.9 mph47%29.71 "Hg5 mi
1:40 PM95 °FScattered clouds.9 mph47%29.74 "Hg5 mi
1:10 PM95 °FPassing clouds.7 mph47%29.77 "Hg5 mi
12:40 PM93 °FPassing clouds.7 mph49%29.80 "Hg5 mi
12:10 PM91 °FPassing clouds.9 mph52%29.80 "Hg5 mi
11:40 AM91 °FPassing clouds.7 mph56%29.83 "Hg5 mi
10:40 AM88 °FScattered clouds.7 mph62%29.83 "Hg5 mi
10:10 AM86 °FScattered clouds.6 mph66%29.83 "Hg4 mi
9:40 AM84 °FScattered clouds.7 mph70%29.83 "Hg4 mi
9:10 AM82 °FScattered clouds.8 mph74%29.83 "Hg4 mi
8:40 AM81 °FScattered clouds.7 mph79%29.83 "Hg4 mi
8:10 AM81 °FScattered clouds.3 mph74%29.83 "Hg4 mi
7:40 AM79 °FScattered clouds.3 mph79%29.80 "Hg4 mi
7:10 AM77 °FScattered clouds.6 mph83%29.80 "Hg4 mi
6:40 AM77 °FScattered clouds.5 mph83%29.80 "Hg4 mi
6:10 AM77 °FFog.5 mph83%29.80 "Hg3 mi
5:40 AM77 °FFog.6 mph83%29.80 "Hg3 mi
5:10 AM75 °FFog.6 mph89%29.80 "Hg3 mi
4:40 AM75 °FFog.7 mph89%29.80 "Hg3 mi
4:10 AM75 °FFog.7 mph89%29.77 "Hg3 mi
3:40 AM75 °FFog.9 mph89%29.77 "Hg3 mi
1:10 AM75 °FThunderstorms. Partly cloudy.14 mph94%29.77 "Hg2 mi
12:40 AM75 °FThunderstorms. Mostly cloudy.10 mph94%29.80 "Hg2 mi
11:40 PM
Fri, Apr 24
75 °FThunderstorms. Mostly cloudy.9 mph94%29.83 "Hg2 mi
11:10 PM75 °FThunderstorms. Mostly cloudy.9 mph94%29.86 "Hg2 mi
10:40 PM77 °FThunderstorms. Mostly cloudy.7 mph83%29.86 "Hg2 mi
10:10 PM79 °FThunderstorms. Mostly cloudy.9 mph79%29.86 "Hg2 mi
9:40 PM79 °FThunderstorms. Mostly cloudy.7 mph84%29.86 "Hg2 mi
9:10 PM81 °FThunderstorms. Mostly cloudy.7 mph84%29.80 "Hg2 mi
8:40 PM79 °FThunderstorms. Mostly cloudy.5 mph89%29.80 "Hg2 mi
6:40 PM88 °FThunderstorms. Broken clouds.6 mph75%29.77 "Hg4 mi
5:40 PM90 °FBroken clouds.13 mph71%29.74 "Hg4 mi
5:10 PM90 °FScattered clouds.12 mph67%29.74 "Hg4 mi
Weather by CustomWeather, © 2015

See weather overviewHow to use our weather pages